Location: Table Rock
(44.3339°N, 118.3154°W)
Time: 13:21:02
(UTC-07:00)

Daily predictions for brighter satellites

Satellite Brightness Start Highest point End
(mag) Time Altitude Azimuth Time Altitude Azimuth Time Altitude Azimuth
BREEZE-M DEB (TANK) 3.4 20:13:14 10° S 20:15:45 27° SE 20:21:02 10° ENE
Cosmos 1602 4.4 20:17:48 10° SSE 20:21:15 33° E 20:24:43 10° NNE
SJ-6B 4.2 20:17:45 10° S 20:21:36 44° W 20:25:34 10° NNW
Meteor 1-25 Rocket 4.4 20:17:03 10° S 20:22:54 87° W 20:28:45 10° N
Meteor 1-11 Rocket 4.5 20:17:49 10° SSE 20:22:58 33° E 20:28:03 10° NNE
Cosmos 2297 Rocket 4.3 20:18:20 10° NW 20:23:01 27° WSW 20:27:40 10° SSW
Cosmos 2360 4.2 20:17:36 10° SSW 20:23:13 67° ESE 20:28:53 10° NNE
Cosmos 1140 Rocket 3.7 20:18:22 10° NNW 20:23:31 55° ENE 20:28:39 10° SE
Spot 2 Rocket 3.5 20:18:48 10° SSE 20:23:53 76° ENE 20:29:00 10° N
NOSS 3-1 (C) 3.7 20:19:35 10° SW 20:25:23 74° NW 20:31:57 10° NE
Cosmos 1954 Rocket 4.1 20:24:39 10° NNW 20:29:59 74° ENE 20:35:18 10° SSE
Cosmos 614 Rocket 4.2 20:26:22 10° NNW 20:31:24 55° ENE 20:36:25 10° SE
ERBS 2.3 20:28:32 10° SW 20:31:58 63° SE 20:35:24 10° NE
Lacrosse 5 3.4 20:29:48 10° SSE 20:32:22 14° ESE 20:34:57 10° E
Cosmos 1782 Rocket 4.4 20:32:50 10° SSW 20:37:05 55° W 20:41:22 10° N
S3M 4.1 20:31:24 10° N 20:37:36 61° E 20:43:50 10° SSE
Resurs 01 Rocket 2.0 20:33:14 10° S 20:37:40 68° WSW 20:42:08 10° NNW
Cosmos 1939 Rocket 3.0 20:34:30 10° SSE 20:38:23 53° ENE 20:42:14 10° N
Meteor 2-11 Rocket 4.4 20:32:42 10° N 20:38:49 82° E 20:44:54 10° S
Tiangong 1 0.8 20:36:24 10° W 20:39:09 63° S 20:41:33 13° E
Okean 1 Rocket 4.4 20:36:06 10° SE 20:39:15 20° E 20:42:25 10° NE
Cosmos 44 3.2 20:35:49 10° NW 20:40:14 77° WSW 20:44:48 10° SSE
Cosmos 1553 Rocket 4.0 20:34:30 10° N 20:40:41 69° E 20:46:45 10° SSE
Okean 1 3.7 20:36:59 10° NNW 20:40:56 68° W 20:44:53 10° S
Cosmos 921 Rocket 3.4 20:38:27 10° SSW 20:42:35 67° WNW 20:46:47 10° NNE
Cosmos 1741 Rocket 4.5 20:38:50 10° N 20:43:52 45° ENE 20:48:36 12° SE
H-2A R/B 3.8 20:41:54 10° E 20:44:42 15° ENE 20:47:27 10° NNE
Cosmos 1300 Rocket 4.2 20:41:57 10° SSE 20:45:48 33° E 20:49:41 10° NNE
Cosmos 1536 3.6 20:43:19 10° SSE 20:46:57 31° E 20:50:35 10° NNE
Lacrosse 5 rocket 1.6 20:44:26 10° NW 20:48:02 56° SW 20:51:33 12° SSE
Cosmos 2263 Rocket 2.7 20:43:29 10° NNW 20:48:57 45° ENE 20:53:38 14° SE
Cosmos 2266 Rocket 4.4 20:43:51 10° SSE 20:49:25 40° E 20:54:59 10° NNE
Cosmos 2322 Rocket 2.5 20:44:06 10° S 20:49:30 45° ESE 20:54:54 10° NE
Helios 1B rocket 3.2 20:46:05 10° NNE 20:49:47 31° E 20:53:27 10° SSE
ARGOS 4.4 20:45:59 12° ESE 20:49:50 25° ENE 20:54:10 10° N
ERS-1 Rocket 3.9 20:46:16 12° SE 20:50:16 32° ENE 20:54:43 10° N
CZ-4B DEB 3.7 20:50:19 16° ESE 20:51:49 25° ENE 20:54:17 10° NNE
Envisat 3.2 20:47:50 10° S 20:52:55 78° WSW 20:58:01 10° NNW
Cosmos 2151 Rocket 3.5 20:48:41 10° S 20:53:03 72° E 20:57:27 10° NNE
Cosmos 1025 Rocket 4.3 20:50:40 10° NNE 20:54:04 23° ENE 20:56:16 16° ESE
Meteor 1-19 Rocket 4.3 20:48:21 10° N 20:54:17 81° E 21:00:06 10° SSE
GPS 2-05 Rocket1 4.5 20:55:36 10° SW 20:57:59 18° S 20:59:06 16° SSE
SL-16 R/B 2.3 20:54:00 10° S 20:59:29 54° ESE 21:05:01 10° NNE
ATLAS 3B R/B 3.5 20:59:57 10° NNW 21:06:17 38° NE 21:11:07 16° ESE
Cosmos 1633 4.3 21:04:08 10° SW 21:07:28 35° WNW 21:10:52 10° N
Abrixas rocket 3.3 21:04:23 10° W 21:07:32 42° N 21:10:42 10° ENE
YAOGAN 6 2.5 21:06:28 12° SSE 21:09:41 89° ENE 21:13:14 10° NNW
USA 186 4.0 21:07:06 10° SSW 21:10:00 27° W 21:12:57 10° NW
NOSS 2-3 (D) 4.1 21:08:35 10° SSW 21:13:04 48° ESE 21:18:13 10° NE
Cosmos 1536 Rocket 3.8 21:11:40 10° NNW 21:15:59 69° W 21:20:16 10° S
BREEZE M DEB (TANK) 4.5 21:07:25 10° W 21:17:31 52° NNW 21:20:54 10° ENE
BREEZE-M DEB (TANK) 4.5 21:19:14 10° W 21:22:58 41° SSW 21:32:22 16° SSE
Cosmos 2360 Rocket 2.7 21:19:31 12° SSE 21:24:11 35° ESE 21:29:15 10° NE
Cosmos 1980 Rocket 3.8 21:20:16 10° WSW 21:25:25 36° NW 21:30:35 10° NNE
MetOp-B 4.3 21:22:09 21° SE 21:25:34 57° ENE 21:30:49 10° N
Meteor 1-5 Rocket 4.0 21:20:32 10° S 21:25:49 64° E 21:31:04 10° NNE
Terra 3.7 21:24:37 14° E 21:25:59 15° ENE 21:28:43 10° NNE
Cosmos 1850 Rocket 4.1 21:22:02 10° NNW 21:27:23 76° WSW 21:31:24 18° SSE
Helios 1A 3.4 21:25:07 13° S 21:28:47 64° W 21:33:02 10° NNW
Okean 2 3.8 21:25:11 10° N 21:29:06 43° ENE 21:30:24 32° ESE
Cosmos 1420 Rocket 4.5 21:25:08 10° SSW 21:30:15 63° WNW 21:35:25 10° NNE
SL-08 RB Rocket 4.3 21:29:39 28° ESE 21:31:26 40° ENE 21:35:41 10° N
SL-8 R/B 4.2 21:28:06 10° WNW 21:32:49 56° N 21:35:59 20° E
Meteor 2-4 Rocket 4.0 21:27:33 10° NNW 21:33:02 69° W 21:38:26 11° S
Cosmos 1331 Rocket 4.4 21:34:09 25° SSE 21:36:34 40° ESE 21:41:26 10° NE
ATLAS 2AS CENTAUR R/B 3.0 21:31:52 10° SSW 21:39:25 63° ESE 21:47:25 10° NE
NOAA 11 4.2 21:37:36 19° SSE 21:41:36 83° WSW 21:47:08 10° NNW
Atlas Centaur 2 3.8 21:35:42 10° WSW 21:41:44 25° S 21:43:52 21° SSE
BREEZE-M (TANK) 4.5 21:26:10 10° WNW 21:44:33 65° N 21:47:45 22° E
SPOT 1/Viking Rocket 4.0 21:43:31 32° ESE 21:45:27 45° ENE 21:50:25 10° N
Cosmos 1238 Rocket 4.3 21:43:26 10° N 21:50:03 53° ENE 21:52:52 32° SE
NOSS 2-3 (E) 3.9 21:45:22 10° SW 21:50:05 84° NW 21:55:42 10° NE
SeaSat 1 4.2 21:50:05 10° N 21:54:30 33° NW 21:58:53 10° WSW
Cosmos 1066 Rocket 4.4 21:55:17 10° N 22:00:33 51° ENE 22:01:57 41° ESE
Cosmos 1455 Rocket 4.0 22:01:50 31° ENE 22:01:50 31° ENE 22:05:13 10° NNE
Cosmos 1975 3.5 22:02:23 38° ENE 22:02:23 38° ENE 22:05:33 10° NNE
Meteor 1-29 4.4 22:02:35 10° N 22:05:47 36° WNW 22:08:15 15° SW
SPOT 5 2.8 22:05:07 44° SSE 22:06:43 89° ENE 22:11:28 10° NNW
Cosmos 1244 Rocket 4.3 22:04:17 28° S 22:07:43 77° E 22:13:52 10° N
Meteor 1-12 Rocket 4.4 22:10:49 45° SE 22:11:54 52° E 22:17:22 10° NNE
Tiangong 1 3.4 22:11:51 10° W 22:12:33 15° WSW 22:12:33 15° WSW
Lacrosse 5 1.7 22:09:31 10° SW 22:14:36 80° SE 22:19:42 10° NE
Okean 1 Rocket 4.4 22:12:50 10° SW 22:16:52 37° WNW 22:20:58 10° N
EXPRESS MD2 4.3 22:14:39 10° W 22:17:58 53° N 22:24:30 10° ENE
Okean 1-7 Rocket 4.3 22:13:38 10° NNW 22:17:58 49° W 22:19:36 33° SSW
YAOGAN 11 4.1 22:20:13 60° SSW 22:20:53 74° WSW 22:25:14 10° NNW
H-2A R/B 2.0 22:22:12 51° S 22:23:31 79° WSW 22:28:31 10° NNW
IGS 5A 4.1 22:24:17 42° NE 22:24:17 42° NE 22:27:48 10° N
ERS-1 Rocket 4.3 22:26:17 20° SSW 22:28:59 33° W 22:33:32 10° NNW
ARGOS 3.8 22:27:30 30° SSW 22:29:47 48° W 22:34:59 10° NNW
SL-08 R/B 4.4 22:28:15 46° SSE 22:30:13 75° E 22:36:33 10° NNE
Cosmos 2278 Rocket 3.4 22:25:25 10° N 22:30:17 28° NE 22:31:25 26° ENE
Cosmos 1025 Rocket 4.5 22:27:56 10° NNW 22:31:44 32° W 22:33:11 25° SW
Cosmos 2237 4.1 22:30:12 48° S 22:31:50 77° ESE 22:37:33 10° NNE
Cosmos 2263 Rocket 3.7 22:27:49 10° NW 22:32:39 29° WSW 22:35:21 20° SW
Cosmos 405 3.9 22:33:58 46° N 22:33:58 46° N 22:36:37 10° N
CARTOSAT-1 3.8 22:33:41 57° NE 22:33:41 57° NE 22:37:34 10° N
Cosmos 2322 Rocket 4.0 22:28:42 10° WSW 22:33:42 31° NW 22:38:45 10° N
NOSS 3-2 (A) 4.2 22:27:32 10° NNW 22:34:53 62° NE 22:37:46 40° ESE
USA 238 DEB 3.7 22:28:02 10° NW 22:35:10 84° SW 22:37:17 50° SSE
USA 238 3.7 22:28:08 10° NW 22:35:16 85° SW 22:37:23 50° SSE
Cosmos 1844 Rocket 2.6 22:35:44 10° NNW 22:41:27 76° ENE 22:42:07 67° ESE
Cosmos 1602 Rocket 4.4 22:39:17 10° N 22:42:32 39° NE 22:42:32 39° NE
SL-16 R/B 4.3 22:39:11 10° WSW 22:43:56 27° NW 22:48:41 10° N
Abrixas rocket 4.2 22:41:25 10° WNW 22:43:19 28° NW 22:43:19 28° NW
H-2A R/B 3.0 22:47:26 39° NE 22:47:26 39° NE 22:50:46 10° N
Landsat 7 3.9 22:47:40 69° WSW 22:47:49 70° WSW 22:52:35 10° NNW
Cosmos 2322 4.1 22:47:42 19° SW 22:51:47 60° WNW 22:57:24 10° NNE
Cosmos 1486 Rocket 4.1 22:46:57 10° NNW 22:52:10 66° WSW 22:52:29 65° SW
Cosmos 1302 Rocket 4.1 22:53:16 61° SW 22:54:08 75° WNW 22:59:26 10° NNE
Cosmos 2219 Rocket 2.8 22:56:04 42° ENE 22:56:04 42° ENE 23:00:14 10° NE
Cosmos 1437 Rocket 4.1 22:56:24 36° NNE 22:56:24 36° NNE 22:58:51 10° NNE
ATLAS 3B R/B 2.9 22:50:42 10° NW 22:57:12 53° WSW 22:58:22 47° SSW
COSMOS 2428 2.6 22:58:58 75° SSW 22:59:30 90° ESE 23:05:16 10° NNE
Cosmos 1745 Rocket 3.9 23:00:14 58° SSW 23:01:29 79° W 23:07:40 10° N
Terra 2.0 23:03:30 67° WNW 23:03:30 67° WNW 23:07:56 10° NNW
DMSP B5D2-2 4.4 23:00:08 10° N 23:05:20 62° WNW 23:06:13 53° WSW
Cosmos 2360 Rocket 3.5 23:02:55 10° WSW 23:08:08 38° NW 23:13:22 10° NNE
Cosmos 1626 Rocket 4.3 23:04:14 10° N 23:07:26 49° NNW 23:07:26 49° NNW
Cosmos 1844 3.6 23:04:48 10° NNW 23:10:28 84° WSW 23:10:28 84° WSW
NOSS 3-2 (C) 4.0 23:04:37 10° NW 23:12:07 77° NE 23:13:52 58° ESE
Cosmos 968 Rocket 4.4 23:08:17 10° N 23:12:31 36° NE 23:12:31 36° NE
Cosmos 2333 Rocket 2.8 23:14:46 44° ENE 23:14:46 44° ENE 23:18:48 10° NNE
GP-B 4.0 23:15:51 10° N 23:19:17 48° NNW 23:19:17 48° NNW
CZ-2C R/B 4.1 23:22:35 32° NE 23:22:35 32° NE 23:25:54 10° N
Cosmos 2333 4.4 23:22:19 61° W 23:22:54 66° WNW 23:28:30 10° NNE
Spot 4 4.4 23:26:46 56° NNW 23:26:46 56° NNW 23:30:31 10° NNW
Cosmos 1354 Rocket 4.4 23:22:07 10° NNW 23:26:48 58° WNW 23:26:48 58° WNW
Cosmos 1818 3.8 23:28:38 66° N 23:28:38 66° N 23:33:28 10° NNE
ATLAS 2AS CENTAUR R/B 4.2 23:23:33 10° WSW 23:30:55 41° NW 23:38:34 10° NNE
NOSS 0 Rocket 4.2 23:33:35 58° ENE 23:33:35 58° ENE 23:38:44 10° NNE
Cosmos 2237 Rocket 3.0 23:38:56 40° NE 23:38:56 40° NE 23:42:38 10° NNE
USA 81 4.4 23:32:41 10° N 23:37:08 62° NNW 23:37:08 62° NNW
NOSS 3-4 (A) 3.6 23:41:24 67° NE 23:41:24 67° NE 23:47:01 10° NE
NOSS 3-4 (C) 3.6 23:41:32 66° ENE 23:41:32 66° ENE 23:47:07 10° NE
Cosmos 1980 4.3 23:44:19 49° NE 23:44:19 49° NE 23:48:27 10° NNE
CZ-4B R/B 4.4 23:38:45 10° NNE 23:41:52 41° NNE 23:41:52 41° NNE
CENTAUR R/B 3.4 23:42:08 10° NNW 23:49:48 59° NE 23:51:46 49° E
ATLAS CENTAUR R/B 3.9 23:53:31 10° N 23:54:43 16° N 23:54:43 16° N
